TimeEDT,TemperatureF,Dew PointF,Humidity,Sea Level PressureIn,VisibilityMPH,Wind Direction,Wind SpeedMPH,Gust SpeedMPH,PrecipitationIn,Events,Conditions,WindDirDegrees,DateUTC
12:54 AM,59.0,53.1,81,29.85,10.0,WNW,6.9,-,N/A,,Overcast,300,2012-10-06 04:54:00
1:42 AM,57.2,53.6,88,29.85,4.0,West,4.6,-,0.04,Rain,Rain,270,2012-10-06 05:42:00
1:49 AM,55.4,53.6,94,29.83,3.0,WNW,4.6,-,0.06,Rain,Rain,290,2012-10-06 05:49:00
1:54 AM,55.9,53.1,90,29.83,4.0,WNW,5.8,-,0.06,Rain,Light Rain,290,2012-10-06 05:54:00
2:03 AM,55.4,53.6,94,29.83,6.0,NW,4.6,-,0.01,Rain,Light Rain,310,2012-10-06 06:03:00
2:17 AM,53.6,51.8,94,29.83,7.0,NW,5.8,-,0.02,Rain,Light Rain,310,2012-10-06 06:17:00
2:54 AM,54.0,52.0,93,29.81,3.0,NW,6.9,-,0.07,Rain,Rain,320,2012-10-06 06:54:00
3:08 AM,53.6,51.8,94,29.83,2.0,WNW,6.9,-,0.06,Rain,Heavy Rain,300,2012-10-06 07:08:00
3:23 AM,53.6,51.8,94,29.80,4.0,NNW,4.6,-,0.10,Rain,Rain,330,2012-10-06 07:23:00
3:30 AM,53.6,51.8,94,29.80,5.0,Calm,Calm,-,0.10,Rain,Light Rain,0,2012-10-06 07:30:00
3:54 AM,53.1,51.1,93,29.78,5.0,Calm,Calm,-,0.12,Rain,Light Rain,0,2012-10-06 07:54:00
4:09 AM,53.6,51.8,94,29.78,4.0,Calm,Calm,-,0.02,Rain,Light Rain,0,2012-10-06 08:09:00
4:29 AM,51.8,50.0,94,29.81,2.5,NW,9.2,20.7,0.11,Rain,Heavy Rain,320,2012-10-06 08:29:00
4:38 AM,51.8,50.0,94,29.80,3.0,NNW,6.9,-,0.13,Rain,Rain,330,2012-10-06 08:38:00
4:52 AM,51.8,50.0,94,29.78,4.0,North,4.6,-,0.15,Rain,Rain,350,2012-10-06 08:52:00
4:54 AM,52.0,50.0,93,29.78,4.0,North,5.8,-,0.16,Rain,Rain,360,2012-10-06 08:54:00
5:23 AM,51.8,50.0,94,29.78,8.0,NW,4.6,-,0.01,Rain,Light Rain,310,2012-10-06 09:23:00
6:24 AM,50.0,48.2,94,29.82,4.0,NNW,5.8,-,0.07,Rain,Rain,330,2012-10-06 10:24:00
6:37 AM,50.0,48.2,94,29.82,4.0,NW,6.9,-,0.10,Rain,Rain,320,2012-10-06 10:37:00
6:54 AM,50.0,48.9,96,29.83,4.0,NW,4.6,-,0.14,Rain,Rain,320,2012-10-06 10:54:00
7:36 AM,50.0,48.2,94,29.81,8.0,NW,4.6,-,0.07,Rain,Light Rain,320,2012-10-06 11:36:00
7:54 AM,50.0,48.0,93,29.83,3.0,NW,3.5,-,0.08,Rain,Light Rain,310,2012-10-06 11:54:00
8:02 AM,50.0,48.2,94,29.82,3.0,WNW,4.6,-,0.01,Rain,Light Rain,300,2012-10-06 12:02:00
8:19 AM,50.0,48.2,94,29.82,3.0,Calm,Calm,-,0.03,Rain,Light Rain,0,2012-10-06 12:19:00
8:43 AM,50.0,48.2,94,29.82,2.0,WNW,3.5,-,0.07,Rain,Rain,290,2012-10-06 12:43:00
8:54 AM,50.0,48.0,93,29.82,1.5,WNW,3.5,-,0.09,Rain,Light Rain,300,2012-10-06 12:54:00
9:07 AM,50.0,48.2,94,29.82,1.0,Calm,Calm,-,0.04,Rain,Rain,0,2012-10-06 13:07:00
9:19 AM,50.0,48.2,94,29.83,1.0,West,5.8,-,0.08,Rain,Heavy Rain,270,2012-10-06 13:19:00
9:27 AM,50.0,48.2,94,29.83,1.5,West,5.8,-,0.10,Rain,Rain,260,2012-10-06 13:27:00
10:02 AM,50.0,48.2,94,29.84,1.2,WNW,3.5,-,0.02,Rain,Rain,300,2012-10-06 14:02:00
10:17 AM,50.0,48.2,94,29.85,1.8,WSW,5.8,-,0.04,Rain,Light Rain,240,2012-10-06 14:17:00
10:23 AM,50.0,48.2,94,29.84,2.0,WSW,8.1,-,0.05,Rain,Light Rain,240,2012-10-06 14:23:00
10:54 AM,50.0,46.9,89,29.84,2.5,WSW,9.2,-,0.06,Rain,Light Rain,240,2012-10-06 14:54:00
11:04 AM,48.2,46.4,93,29.85,3.0,WSW,6.9,-,0.01,Rain,Light Rain,240,2012-10-06 15:04:00
11:23 AM,48.2,46.4,93,29.85,10.0,WSW,9.2,-,0.01,,Overcast,240,2012-10-06 15:23:00
11:39 AM,50.0,46.4,87,29.85,10.0,SW,9.2,-,0.01,,Overcast,230,2012-10-06 15:39:00
11:54 AM,52.0,48.0,86,29.86,10.0,WSW,11.5,-,0.01,,Overcast,240,2012-10-06 15:54:00
12:03 PM,53.6,48.2,82,29.86,10.0,WSW,11.5,-,N/A,,Overcast,250,2012-10-06 16:03:00
12:32 PM,55.4,48.2,77,29.86,10.0,West,19.6,23.0,N/A,,Mostly Cloudy,270,2012-10-06 16:32:00
12:54 PM,55.0,45.0,69,29.86,10.0,West,13.8,20.7,N/A,,Mostly Cloudy,280,2012-10-06 16:54:00
1:54 PM,55.0,41.0,59,29.86,10.0,West,16.1,24.2,N/A,,Scattered Clouds,260,2012-10-06 17:54:00
2:54 PM,54.0,41.0,62,29.87,10.0,West,13.8,23.0,N/A,,Mostly Cloudy,280,2012-10-06 18:54:00
3:54 PM,55.9,41.0,57,29.88,10.0,West,17.3,26.5,N/A,,Scattered Clouds,280,2012-10-06 19:54:00
4:54 PM,54.0,42.1,64,29.89,10.0,WNW,15.0,23.0,N/A,,Mostly Cloudy,290,2012-10-06 20:54:00
5:54 PM,52.0,39.9,63,29.91,10.0,West,11.5,-,N/A,,Overcast,270,2012-10-06 21:54:00
6:54 PM,52.0,36.0,54,29.94,10.0,West,13.8,20.7,N/A,,Overcast,270,2012-10-06 22:54:00
7:54 PM,51.1,34.0,52,29.96,10.0,WSW,13.8,-,N/A,,Overcast,250,2012-10-06 23:54:00
8:54 PM,50.0,35.1,57,29.98,10.0,WSW,15.0,21.9,N/A,,Overcast,240,2012-10-07 00:54:00
9:54 PM,46.9,34.0,61,30.00,10.0,WSW,11.5,-,N/A,,Mostly Cloudy,240,2012-10-07 01:54:00
10:54 PM,46.9,34.0,61,30.00,10.0,WSW,11.5,-,N/A,,Overcast,240,2012-10-07 02:54:00